Regional Weather Roundup
Issued by NWS

Home | Current Version | Previous Version | Text Only | Print | Product List | Glossary On
Versions: 1 2 3 4 5 6 7 8 9 10 11 12 13 14 15 16 17 18 19 20 21 22 23 24 25 26 27 28 29 30 31 32 33 34 35 36 37 38 39 40 41 42 43 44 45 46 47 48 49 50
000
ASUS44 KJAN 020610
RWRMS

MISSISSIPPI HOURLY WEATHER ROUNDUP
NATIONAL WEATHER SERVICE JACKSON MS
100 AM CDT THU APR 02 2015

NOTE: "FAIR: INDICATES FEW OR NO CLOUDS BELOW 12,000 FEET WITH NO
SIGNIFICANT WEATHER AND/OR OBSTRUCTIONS TO VISIBILITY.

MSZ001>002-007>008-010>013-018>021-025>028-034>036-020700-
NORTHWEST MISSISSIPPI

CITY           SKY/WX    TMP DP  RH WIND       PRES   REMARKS
CLARKSDALE       N/A     66  63  88 SE9       29.97F
CLEVELAND      FAIR      67  61  83 S6        29.97S
GREENWOOD      MOCLDY    67  57  70 S8        29.99S
6HR MIN TEMP:  66; 6HR MAX TEMP:  74;

GREENVILLE     MOCLDY    66  59  78 S8        29.96F
6HR MIN TEMP:  65; 6HR MAX TEMP:  74;

OLIVE BRANCH   PTCLDY    66  63  88 S9        29.97F
OXFORD         FAIR      66  57  72 S9        30.01S
TUNICA         CLOUDY    68  61  77 S12       29.96F
$$

MSZ003>006-009-014>017-022>024-029>033-037>039-020700-
NORTHEAST MISSISSIPPI

CITY           SKY/WX    TMP DP  RH WIND       PRES   REMARKS
COLUMBUS AFB   LGT RAIN  61  58  88 S3        30.02R
6HR MIN TEMP:  59; 6HR MAX TEMP:  75; 6HR PCP: TRACE;

CORINTH        FAIR      63  61  94 SE5       29.99S
GOLDN TRIANGLE MOCLDY    63  55  77 S8        30.02R
STARKVILLE     FAIR      64  57  77 CALM      30.02S
TUPELO         MOCLDY    65  58  78 S3        30.00S
6HR MIN TEMP:  64; 6HR MAX TEMP:  75;

$$

MSZ040-058-020700-
CENTRAL MISSISSIPPI

CITY           SKY/WX    TMP DP  RH WIND       PRES   REMARKS
JACKSON INTL   CLOUDY    70  62  76 S12       30.03S
6HR MIN TEMP:  68; 6HR MAX TEMP:  73;

JACKSON HAWKNS CLOUDY    69  61  75 S9        30.03F
6HR MIN TEMP:  69; 6HR MAX TEMP:  75;

MERIDIAN KEY   MOCLDY    63  60  90 S7        30.05S
6HR MIN TEMP:  63; 6HR MAX TEMP:  73;

MERIDIAN NAS   CLOUDY    68  61  78 S5        30.05S
6HR MIN TEMP:  65; 6HR MAX TEMP:  75; 6HR PCP: TRACE;

RAYMOND        FAIR      70  64  83 VRB3      30.02F
VICKSBURG      CLOUDY    71  60  68 S6        30.01S
6HR MIN TEMP:  69; 6HR MAX TEMP:  78;

$$

MSZ059>079-020700-
SOUTH MISSISSIPPI

CITY           SKY/WX    TMP DP  RH WIND       PRES   REMARKS
BROOKHAVEN       N/A     68  64  88 S5        30.06S
HATTIESBURG    CLOUDY    69  66  90 S6        30.07S
6HR MIN TEMP:  69; 6HR MAX TEMP:  77;

MCCOMB         CLOUDY    67  64  90 S5        30.05S
6HR MIN TEMP:  67; 6HR MAX TEMP:  75;

NATCHEZ        CLOUDY    70  63  78 S9        30.02F
6HR MIN TEMP:  70; 6HR MAX TEMP:  75;

PINE BELT      CLOUDY    68  63  83 S6        30.07F
6HR MIN TEMP:  66; 6HR MAX TEMP:  75;

$$

MSZ080>082-020700-
COASTAL MISSISSIPPI

CITY           SKY/WX    TMP DP  RH WIND       PRES   REMARKS
BILOXI         LGT RAIN  72  72 100 S8        30.06F
6HR MIN TEMP:  71; 6HR MAX TEMP:  73;

PASCAGOULA     CLOUDY    72  69  90 S5        30.07F
6HR MIN TEMP:  68; 6HR MAX TEMP:  72;

GULFPORT       CLOUDY    72  70  93 S6        30.06F
6HR MIN TEMP:  72; 6HR MAX TEMP:  73; 6HR PCP: TRACE;

$$


USA.gov is the U.S. government's official web portal to all federal, state and local government web resources and services.